#timestamp,LO_Frequency,Hit,StdDev 
1614312015.2,286047003.0,N
1614312035.0,286047006.0,P
1614312035.9,286047006.0,Y
1614312055.8,286047000.0,P
1614312075.6,286047000.3,N
1614312095.4,286047001.0,N
1614312115.3,286047000.5,N
1614312135.1,286046996.9,N
1614312155.8,286046997.4,N
1614312175.7,286046997.3,N
1614312195.5,286046995.6,N
1614312215.4,286046997.6,N
1614312235.2,286046998.2,N
1614312255.0,286046998.4,N
1614312255.9,286046998.4,N
1614312275.8,286046999.8,N
1614312295.6,286047000.3,N
1614312315.4,286046998.1,N
1614312335.3,286047000.8,N
1614312355.1,286046999.2,N
1614312375.9,286046993.7,Y
1614312395.7,286046995.4,P
1614312415.5,286046998.5,N
1614312435.4,286046998.3,N
1614312455.2,286046999.1,N
1614312475.0,286046997.5,N
1614312476.0,286046997.5,N
1614312495.8,286046998.1,N
1614312515.6,286047000.3,N
1614312535.5,286046999.2,N
1614312555.3,286046999.6,N
1614312575.1,286046996.5,N
1614312595.9,286046997.5,N
1614312615.7,286046998.0,N
1614312635.6,286046994.9,Y
1614312655.4,286047000.2,P
1614312675.2,286047001.3,N
1614312695.1,286047004.4,P
1614312696.0,286047004.4,N
1614312715.8,286047001.3,N
1614312735.6,286047002.0,N
1614312755.5,286046999.7,N
1614312775.3,286047000.9,N
1614312795.2,286047002.3,N
1614312815.9,286047000.0,N
1614312835.7,286047002.8,N
1614312855.6,286047003.8,N
1614312875.4,286047003.0,N
1614312895.2,286047004.4,N
1614312915.1,286047001.5,N
1614312916.0,286047001.5,N
1614312935.8,286046998.4,N
1614312955.6,286047000.8,N
1614312975.5,286047002.3,N
1614312995.3,286047004.3,N
1614313015.2,286047000.5,N
1614313035.9,286046998.2,N
1614313055.7,286046999.2,N
1614313075.6,286046999.6,N
1614313095.4,286046997.2,N
1614313115.2,286046996.0,N
1614313135.1,286046993.9,N
1614313136.0,286046993.9,N
1614313155.8,286046995.6,N
1614313175.7,286046996.3,N
1614313195.5,286046995.7,N
1614313215.3,286046998.0,N
1614313235.2,286046997.6,N
1614313255.0,286046994.2,N
1614313255.9,286046994.2,N
1614313275.7,286046994.8,N
1614313295.6,286046991.7,N
1614313315.4,286046990.9,N
1614313335.3,286046992.3,N
1614313355.1,286046994.6,N
1614313356.0,286046994.6,N
1614313375.8,286046992.1,N
1614313395.7,286046996.4,N
1614313415.5,286046996.0,N
1614313435.3,286046995.9,N
1614313455.2,286046995.0,N
1614313475.0,286046995.2,N
1614313475.9,286046995.2,N
1614313495.8,286046995.5,N
1614313515.6,286046995.4,N
1614313535.4,286046994.1,N
1614313555.3,286046991.8,Y
1614313575.1,286047002.8,P
1614313595.9,286047002.8,N
1614313615.7,286047001.9,N
1614313635.5,286047000.5,N
1614313655.4,286047000.3,N
1614313675.2,286046999.8,N
1614313695.0,286046999.8,N
1614313695.9,286046999.8,N
1614313715.8,286047002.0,N
1614313735.6,286046998.3,N
1614313755.5,286047001.1,N
1614313775.3,286047000.8,N
1614313795.1,286046999.3,N
1614313815.9,286046998.8,N
1614313835.7,286046998.9,N
1614313855.5,286046998.7,N
1614313875.4,286047001.1,N
1614313895.2,286046998.1,N
1614313915.0,286047000.0,N
1614313916.0,286047000.0,N
1614313935.8,286047000.5,N
1614313955.6,286046998.6,N
1614313975.5,286046998.2,N
1614313995.3,286047000.5,N
1614314015.1,286047001.4,N
1614314035.9,286047002.0,N
1614314055.7,286046998.2,N
1614314075.5,286046999.4,N
1614314095.4,286046998.9,N
1614314115.2,286046999.2,N
1614314135.1,286046996.7,N
1614314136.0,286046996.7,N
1614314155.8,286046998.5,N
1614314175.6,286047000.0,N
1614314195.5,286047001.9,N
1614314215.3,286047002.3,N
1614314235.1,286047001.8,N
1614314255.9,286047002.1,N
1614314275.7,286047000.1,N
1614314295.6,286047001.5,N
1614314315.4,286047002.5,N
1614314335.2,286047000.4,N
1614314355.1,286047002.2,N
1614314356.0,286047002.2,N
1614314375.8,286047001.1,N
1614314395.7,286047000.5,N
1614314415.5,286046998.6,N
1614314435.3,286046995.5,N
1614314455.2,286046998.0,N
1614314475.9,286046997.4,N
1614314495.7,286046999.0,N
1614314515.6,286046997.0,N
1614314535.4,286046999.4,N
1614314555.2,286047001.0,N
1614314575.1,286047002.6,N
1614314576.0,286047002.6,N
1614314595.8,286047005.7,N
1614314615.7,286047006.0,N
1614314635.5,286047004.2,N
1614314655.3,286047004.3,N
1614314675.2,286047003.3,N
1614314695.0,286047003.9,N
1614314695.9,286047003.9,N
1614314715.8,286047000.6,N
1614314735.6,286047001.2,N
1614314755.4,286047001.2,N
1614314775.3,286046999.8,N
1614314795.1,286047000.6,N
1614314796.0,286047000.6,N
1614314815.8,286047000.6,N
1614314835.7,286046999.6,N
1614314855.5,286046996.9,N
1614314875.3,286047001.2,N
1614314895.2,286046998.5,N
1614314915.0,286046998.9,N
1614314915.9,286046998.9,N
1614314935.8,286046998.1,N
1614314955.6,286047000.4,N
1614314975.4,286046999.0,N
1614314995.3,286046998.5,N
1614315015.1,286046998.6,N
1614315035.8,286046998.2,N
1614315055.7,286046996.8,N
1614315075.5,286046998.7,N
1614315095.4,286046997.3,N
1614315115.2,286046996.6,N
1614315135.0,286047011.9,Y
1614315135.9,286047000.8,P
1614315155.8,286046998.4,P
1614315175.6,286047000.8,N
1614315195.4,286046998.2,N
1614315215.3,286046999.0,N
1614315235.1,286046998.4,N
1614315255.9,286046997.3,N
1614315275.7,286046997.0,N
1614315295.5,286047000.5,N
1614315345.4,286046997.1,E
1614315355.3,286046999.1,N
1614315375.2,286047000.7,P
1614315395.9,286046999.8,N
1614315415.7,286047000.0,N
1614315435.6,286047003.7,Y
1614315455.4,286047005.2,P
1614315475.2,286047005.8,N
1614315495.1,286047006.8,N
1614315496.0,286047006.8,N
1614315515.8,286047007.5,N
1614315535.7,286047006.3,N
1614315555.5,286047004.7,N
1614315575.3,286047005.3,N
1614315595.2,286047007.2,Y
